Elmendorf Air Force Base
PAED : now visible

Airfield :











YOU CAN JOIN US ON...

 
LOGIN :

Register | Disclaimer

   EN    FR    IT 

 









Legend :    VFR   Marginal VFR   IFR   Intensive IFR   Very Intensive IFR
Visi :
Ceiling :
>= 8 km
>= 3000ft
5 to 8 km
1000 to 3000 ft
1500m to 5 km
500 to 1000 ft
800 to 1500m
200 to 500 ft
< 800m
< 200 ft
Symbols :   Thunderstorms  Fog  Heavy snow  Heavy precipitations  Wind > 20 kt






- Airport Elevation : 212 ft
- IATA code : EDF


PAED - Elmendorf Air Force Base

CURRENT METAR :
  • 011356Z AUTO 36007KT 10SM CLR M06/M14 A3038 RMK AO2 SLP286 T10611144 $

EXPIRED METARs :
  • 011256Z AUTO 36007KT 10SM SCT100 M05/M14 A3037 RMK AO2 SLP282 T10541142 $
  • 011156Z AUTO 35013KT 10SM CLR M05/M15 A3037 RMK AO2 SLP282 T10461150 11017 21046 53001 $

TAF TAF PAED
Valid from the 01 at 11:00 until the 02 at 17:00 UTC


011102Z 0111/0217 VRB06KT 9999 SCT150 BKN200 QNH3032INS
BECMG 0117/0118 02009KT 9999 BKN050 QNH3020INS TX01/0202Z TNM05/0115Z



MET'MAP, your aeronautical weather chart ! - Copyright ORBIFLY December 2007 - Disclaimer

ORBIFLY MET'MAP TEAM :

Programming & Development : Alexandra Zaïnal
Concept & original design : Baudouin d'Aumeries
Assistance for programming : Marc-Olivier Méhu
Technical & hardware support : Manuel Goepfert

Contact : metmap@orbifly.com




SOURCES & CREDITS :

   NOAA       Earth
Advisory